Other Public Products
Issued by NWS Grand Forks, ND

Home | Current Version | Previous Version | Text Only | Print | Product List | Glossary On
Versions: 1 2 3 4 5 6 7 8 9 10 11 12 13 14 15 16 17 18 19 20 21 22 23 24 25 26 27 28 29 30 31 32 33 34 35 36 37 38 39 40 41 42 43 44 45 46 47 48 49 50
000
FPUS83 KFGF 311610
OPUFGF
PRAIRIE TO PINES WEATHER ROUNDUP
NATIONAL WEATHER SERVICE EASTERN NORTH DAKOTA/GRAND FORKS ND
1100 AM CDT TUE MAY 31 2016

 **SATELLITE DATA USED TO AUGMENT SKY COVER AT AUTOMATED STATIONS**
 *****  WEATHER ACROSS EASTERN NORTH DAKOTA  *****

CITY           SKY/WX    TMP DP  RH WIND       PRES   REMARKS
GRAND FORKS    CLOUDY    67  57  70 SW14      29.68S
GRAND FORKS AF CLOUDY    64  57  77 SW16      29.68S
GRAND CITY NWS   N/A     66 N/A N/A SW18        N/A
BUXTON           N/A     64  61  90 W9G21       N/A
DEVILS LAKE    CLOUDY    57  53  86 SW17      29.67R
FARGO          CLOUDY    64  54  69 SW18G26   29.75R
WAHPETON ARPT  MOSUNNY   64  50  59 W17G26    29.79S
$$

 *****  WEATHER ACROSS CENTRAL AND WESTERN NORTH DAKOTA  *****

CITY           SKY/WX    TMP DP  RH WIND       PRES   REMARKS
JAMESTOWN      MOSUNNY   60  47  61 W21G28    29.72F
BISMARCK       CLOUDY    57  47  69 W15G24    29.73F
MINOT          SUNNY     62  48  60 SW18      29.61F
MINOT AFB      SUNNY     59  51  73 W18       29.59F
GARRISON         N/A     57  50  77 W16       29.65F
WILLISTON      LGT RAIN  53  48  83 N30G41    29.74R
DICKINSON      LGT RAIN  50  47  89 W22       29.71F
HETTINGER      CLOUDY    53  44  71 W29G39    29.80F
$$

 *****  OTHER OBSERVATIONS NORTHEAST NORTH DAKOTA  *****

CITY           SKY/WX    TMP DP  RH WIND       PRES   REMARKS
WALHALLA       FAIR      61  57  88 SE10G20   29.65S FOG
LANGDON        CLOUDY    63  59  88 SW16      29.65S
CAVALIER       CLOUDY    63  59  88 S13       29.65F
GRAFTON        CLOUDY    64  59  82 SW14      29.68F
CANDO          NOT AVBL
FORT TOTTEN      N/A     56  54  94 SW7       29.95S
ROLLA          FAIR      59  57  94 W17       29.62R
RUGBY          FAIR      57  54  88 SW12      29.64S
 ***** THE ABOVE OBSERVATIONS ARE NON NWS ARE NOT QUALITY
        CONTROLLED AND MAY MIS-REPORT RAIN FOR SNOW...
$$

 *****  OTHER OBSERVATIONS SOUTHEAST NORTH DAKOTA *****

CITY           SKY/WX    TMP DP  RH WIND       PRES   REMARKS
COOPERSTOWN    NOT AVBL
VALLEY CITY    PTSUNNY   59  50  72 SW14G25   29.76S
OAKES            N/A    N/A N/A N/A MISG        N/A
GWINNER        FAIR      63  48  59 SW25G31   29.79S
SHEYENNE NWR     N/A     64  47  54 W15       29.95S
BUFFALO          N/A     61  50  67 W18         N/A
WYNDMERE         N/A     64  52  63 W21         N/A
 ***** THE ABOVE OBSERVATIONS ARE NON NWS ARE NOT QUALITY
       CONTROLLED AND MAY MIS-REPORT RAIN FOR SNOW...
$$

  *****  WEATHER ACROSS NORTHERN MINNESOTA  *****

CITY           SKY/WX    TMP DP  RH WIND       PRES   REMARKS
FLAG ISLAND    LGT RAIN  52  48  87 E16G24    29.80F
WARROAD        CLOUDY    52  46  82 SE15G25   29.79S
ROSEAU         CLOUDY    54  48  82 SE14G20   29.76S
HALLOCK        CLOUDY    59  57  94 SE13G20   29.68S
THF RVR FALLS  CLOUDY    59  55  88 SE14      29.73S
HALSTAD        NOT AVBL
FOSSTON        LGT RAIN  57  57 100 S10       29.75S
BAUDETTE       CLOUDY    50  47  89 SE17G25   29.82S
WASKISH        CLOUDY    50  48  93 E14G23    29.82R
CROOKSTON      CLOUDY    63  61  94 SW10      29.71S
$$
  *****  WEATHER ACROSS CENTRAL AND WEST MINNESOTA  *****

CITY           SKY/WX    TMP DP  RH WIND       PRES   REMARKS
BEMIDJI        RAIN      53  52  95 SE16      29.78F
PARK RAPIDS    LGT RAIN  57  54  89 SE10      29.78S
WADENA         CLOUDY    61  57  88 SW12      29.79R
DETROIT LAKES  CLOUDY    61  55  82 SW10      29.78S
MOORHEAD       CLOUDY    64  55  72 SW16G22   29.76R
FERGUS FALLS   CLOUDY    63  55  77 SW17      29.76S
ELBOW LAKE     CLOUDY    62  56  81 SW14      29.82R
MORRIS MN      PTSUNNY   64  55  72 W13       29.82R
STAPLES        RAIN      61  61 100 S6        29.79S
WHEATON        MOSUNNY   66  54  63 W13G21    29.83R
$$
  *****  WEATHER ELSEWHERE ACROSS MINNESOTA  *****

CITY           SKY/WX    TMP DP  RH WIND       PRES   REMARKS
DULUTH         LGT RAIN  45  42  89 E17G29    29.94F
INTRNTL FALLS  RAIN      49  46  90 E16G24    29.89F FOG
ELY            LGT RAIN  52  41  66 E14G21    29.95F
CLOQUET        LGT RAIN  45  41  87 E13G23    29.92F
BRAINERD       CLOUDY    54  53  97 SE8       29.83S
HIBBING        RAIN      47  46  97 E8        29.90R FOG
ALEXANDRIA     CLOUDY    62  56  80 SW13      29.83R
SAINT CLOUD    CLOUDY    66  63  90 S13       29.83S
MINNEAPOLIS    CLOUDY    68  61  78 S7        29.87F
$$

  *****  WEATHER ACROSS SOUTH DAKOTA  *****

CITY           SKY/WX    TMP DP  RH WIND       PRES   REMARKS
SIOUX FALLS    MOSUNNY   65  52  62 NW13      29.93S
BROOKINGS      SUNNY     62  50  64 W20       29.89F
WATERTOWN      MOSUNNY   63  48  58 W16       29.87S
HURON          SUNNY     64  45  49 W16G23    29.89F
SISSETON         N/A     66  49  54 W17       29.81S
ABERDEEN       SUNNY     62  45  53 W16G24    29.83F
MITCHELL       SUNNY     66  46  48 NW15      29.93F
PIERRE         SUNNY     65  43  44 W24G30    29.88F
MOBRIDGE       CLOUDY    59  44  57 W20G30    29.79F
RAPID CITY     PTSUNNY   61  34  36 W23G30    29.96F
$$

  *****  SOME WEATHER IN NEARBY STATES *****

CITY           SKY/WX    TMP DP  RH WIND       PRES   REMARKS
GLASGOW MT     LGT RAIN  54  50  86 N23       29.98R
GREAT FALLS MT MOSUNNY   53  36  52 N15       30.26S
CHEYENNE WY    MOSUNNY   53  34  48 SW7       30.15F
SCOTTSBLUFF NE CLOUDY    57  44  62 W9        30.13S
OMAHA NE       CLOUDY    67  60  78 NW14      29.93S
DES MOINES IA  CLOUDY    76  61  59 S13       29.92S
DAVENPORT IA   CLOUDY    76  60  57 CALM      29.96F
CHICAGO IL     PTSUNNY   80  55  42 E13G18    29.98F
EAU CLAIRE WI  CLOUDY    72  60  66 SE10      29.90F
LA CROSSE WI   CLOUDY    77  62  59 S13       29.91F
$$

  *****  SOME NATIONAL WEATHER *****

CITY           SKY/WX    TMP DP  RH WIND       PRES   REMARKS
LA GUARDIA NY  MOSUNNY   80  62  54 E9        29.96F
RALEIGH NC     PTSUNNY   79  68  69 NE6       29.98F
ATLANTA GA     PTSUNNY   85  64  49 SE5       29.99S
NEW ORLEANS LA PTSUNNY   85  72  65 N7        29.96S HX  91
OKLAHOMA CITY  CLOUDY    74  65  73 E13       29.91F
ALBUQUERQUE NM PTSUNNY   70  44  39 SW9       30.04S
SALT LAKE CITY MOSUNNY   67  36  31 W5        30.10R
LOS ANGELES CA CLOUDY    62  56  80 CALM      29.90S FOG
BOISE ID       SUNNY     60  35  39 SE3       30.14R
SEATTLE WA     MOSUNNY   63  49  60 N6        30.13F
$$

*** WEATHER ACROSS MANITOBA...SASKATCHEWAN AND ONTARIO ***
                ***ONTARIO***

CITY           SKY/WX    TMP DP  RH WIND       PRES   REMARKS
GERALDTON      MOSUNNY   54  28  37 E14       30.18S
THUNDER BAY    CLOUDY    52  39  62 E18G28    30.10F
SIOUX LOOKOUT  LGT RAIN  50  41  71 E7        30.04S
TORONTO        MOSUNNY   79  46  31 W17G28    30.00R
BIG TROUT LK   SUNNY     41  28  60 SE7       30.27F
PICKLE LAKE    PTSUNNY   54  28  37 E12G21    30.13F
DRYDEN         LGT RAIN  46  45  93 E14G22    29.98F FOG
KENORA         LGT RAIN  48  46  93 E23G33    29.87F FOG
$$
                *** MANITOBA***

CITY           SKY/WX    TMP DP  RH WIND       PRES   REMARKS
BRANDON        LGT RAIN  52  50  93 NE31G40   29.68F FOG
DAUPHIN        LGT RAIN  52  50  93 NE18      29.86F
ISLAND LAKE    PTSUNNY   54  36  50 E9G20     30.15F
PILOT MOUND      N/A     59  57  94 E13         N/A
THE PAS        PTSUNNY   57  41  54 E12G18    30.07F
THOMPSON       NOT AVBL
WINNIPEG       LGT RAIN  52  50  93 E23G33    29.74S
LYNN LAKE      CLOUDY    48  39  71 SE8       30.18S
CHURCHILL      PTSUNNY   37  27  65 SE16      30.37F
GILLAM         MOSUNNY   39  27  60 E7        30.30F
$$
                ***SASKATCHEWAN***

CITY           SKY/WX    TMP DP  RH WIND       PRES   REMARKS
ESTEVAN        LGT RAIN  52  52 100 N25G37    29.74R
KINDERSLEY     CLOUDY    54  48  82 NW13      30.11S
LLOYDMINSTER   PTSUNNY   57  48  72 N14       30.14S
PRINCE ALBERT  CLOUDY    55  46  71 NE13      30.07S
REGINA         PTSUNNY   54  48  82 N22G29    29.93S
YORKTON        LGT RAIN  50  48  93 N18G24    29.91R  C1F1C2F2C3F3C4F4C5F5C6F6C7F7C8F8C9F9CaFaCbFbCcFcCdFdCe!



USA.gov is the U.S. government's official web portal to all federal, state and local government web resources and services.